This demonstration page uses our WeatherBlox Daily Observations layout. Learn more.

38.80484, -77.04692

Hourly Observations for October 1, 2020

Temp ( °F °C ) Dew Point ( °F °C ) Humidity (%) Winds ( mph kmh ) Pressure ( in mb ) Visibility ( mi km ) Precip ( " mm )
12:52 am 00:52 Clear 61 16.1 54 12.2 78 78 S 9 15 29.91 1013 10 16.0934 0 0
1:52 am 01:52 Clear 60 15.6 54 12.2 80 80 S 10 17 29.91 1013 10 16.0934 0 0
2:52 am 02:52 Clear 60 15.6 53 11.7 78 78 SSW 10 17 29.91 1013 10 16.0934 0 0
3:52 am 03:52 Clear 59 15 53 11.7 81 81 SSW 8 13 29.89 1012 10 16.0934 0 0
4:52 am 04:52 Clear 58 14.4 54 12.2 87 87 SSW 6 9 29.9 1013 10 16.0934 0 0
5:52 am 05:52 Mostly Clear 57 13.9 53 11.7 87 87 SSW 5 7 29.91 1013 10 16.0934 0 0
6:52 am 06:52 Partly Cloudy 57 13.9 53 11.7 87 87 S 6 9 29.93 1013 10 16.0934 0 0
7:52 am 07:52 Mostly Cloudy 58 14.4 54 12.2 87 87 SSW 3 6 29.94 1014 10 16.0934 0 0
8:52 am 08:52 Partly Cloudy 61 16.1 54 12.2 78 78 SSW 3 6 29.94 1014 10 16.0934 0 0
9:52 am 09:52 Partly Cloudy 65 18.3 55 12.8 70 70 Calm 29.95 1014 10 16.0934 0 0
10:52 am 10:52 Mostly Cloudy 68 20 56 13.3 65 65 Calm 29.95 1014 10 16.0934 0 0
11:52 am 11:52 Mostly Cloudy 72 22.2 54 12.2 53 53 VRB 6 9 29.94 1014 10 16.0934 0 0
12:52 pm 12:52 Mostly Cloudy 72 22.2 54 12.2 53 53 NNW 12 19 29.95 1014 10 16.0934 0 0
1:52 pm 13:52 Partly Cloudy 75 23.9 55 12.8 50 50 NNW 8 13 29.93 1014 10 16.0934 0 0
2:52 pm 14:52 Partly Cloudy 75 23.9 54 12.2 48 48 N 12 19 29.92 1013 10 16.0934 0 0
3:52 pm 15:52 Partly Cloudy 76 24.4 54 12.2 47 47 VRB 3 6 29.91 1013 10 16.0934 0 0
4:52 pm 16:52 Cloudy 71 21.7 54 12.2 55 55 NNW 12 19 29.91 1013 10 16.0934 0 0
5:52 pm 17:52 Cloudy 69 20.6 53 11.7 57 57 NNW 9 15 29.93 1014 10 16.0934 0 0
6:52 pm 18:52 Cloudy 67 19.4 51 10.6 57 57 N 13 20 29.95 1014 10 16.0934 0 0
7:52 pm 19:52 Cloudy with Light Rain 66 18.9 52 11.1 61 61 NE 5 7 29.96 1014 10 16.0934 0.001 0.001
8:52 pm 20:52 Cloudy with Light Rain 64 17.8 54 12.2 70 70 E 5 7 29.96 1015 10 16.0934 0.001 0.001
9:52 pm 21:52 Cloudy 63 17.2 56 13.3 78 78 Calm 29.98 1015 10 16.0934 0.001 0.001
10:52 pm 22:52 Cloudy with Light Rain 61 16.1 58 14.4 90 90 SE 7 11 29.99 1016 10 16.0934 0.01 0.254
11:52 pm 23:52 Cloudy with Light Rain 59 15 55 12.8 87 87 ESE 5 7 29.98 1015 10 16.0934 0.02 0.508

Powered by AerisWeather